Geneva, Switzerland

5:21 PM CEST on September 22, 2017 (GMT +0200)
Cointrin

Weather History for LSGG - November, 2012

Change the Weather History Date:

Sunday, November 18, 2012

  Actual Average Record
Temperature  
Mean Temperature 42 °F -  
Max Temperature 44 °F 42 °F 62 °F (2015)
Min Temperature 40 °F 32 °F 24 °F (2007)
Degree Days  
Heating Degree Days 23    
Moisture  
Dew Point 39 °F    
Average Humidity 89    
Maximum Humidity 100    
Minimum Humidity 73    
Precipitation  
Precipitation 0.00 in 0.11 in - ()
Sea Level Pressure  
Sea Level Pressure 29.96 in    
Wind  
Wind Speed 2 mph ()    
Max Wind Speed 5 mph    
Max Gust Speed -    
Visibility 3.8 miles    
Events Fog    
Averages and records for this station are not official NWS values.
T = Trace of Precipitation, MM = Missing Value Source: Averaged Metar Reports

Daily Weather History Graph

Daily Weather History Graph

Search for Another Location

Airport or City:

Trip Planner

Search our weather history database for the weather conditions in past years. The results will help you decide how hot, cold, wet, or windy it might be!

Date:

Astronomy

Nov. 18, 2012 Rise Set
Actual Time 7:41 AM CET 4:59 PM CET
Civil Twilight 7:08 AM CET 5:32 PM CET
Nautical Twilight 6:31 AM CET 6:09 PM CET
Astronomical Twilight 5:55 AM CET 6:44 PM CET
Moon 11:55 AM CET (11/18) 10:04 PM CET (11/18)
Length of Visible Light 10h 24m
Length of Day
9h 18m
Waxing Crescent, 27% of the Moon is Illuminated
Nov 18
Waxing Crescent
Nov 20
First Quarter
Nov 28
Full
Dec 6
Last Quarter
Dec 13
New

Hourly Weather History & Observations

Time (CET) Temp. Windchill Dew Point Humidity Pressure Visibility Wind Dir Wind Speed Gust Speed Precip Events Conditions
12:00 AM 42 °F - 40 °F 91% 29.98 in - NNW 2.3 mph - -  
12:20 AM 41.0 °F - 41.0 °F 100% 29.95 in 1.6 mi Variable 1.2 mph - N/A   Overcast
12:50 AM 41.0 °F - 41.0 °F 100% 29.95 in 1.4 mi Variable 2.3 mph - N/A   Overcast
1:00 AM 41 °F - 40 °F 95% 29.98 in 2 mi NNW 2.3 mph - -   Mist
1:20 AM 41.0 °F - 41.0 °F 100% 29.95 in 1.4 mi Calm Calm - N/A   Overcast
1:50 AM 41.0 °F - 41.0 °F 100% 29.92 in 1.3 mi Variable 2.3 mph - N/A   Overcast
2:00 AM 41 °F - 40 °F 95% 29.98 in - WNW 3.5 mph - -  
2:50 AM 41.0 °F - 41.0 °F 100% 29.92 in 1.6 mi Calm Calm - N/A   Overcast
3:00 AM 41 °F - 40 °F 92% 29.97 in - NNW 2.3 mph - -  
3:20 AM 41.0 °F - 41.0 °F 100% 29.92 in 1.7 mi Variable 1.2 mph - N/A   Overcast
3:50 AM 41.0 °F - 39.2 °F 93% 29.92 in 1.7 mi Variable 1.2 mph - N/A   Overcast
4:20 AM 41.0 °F - 39.2 °F 93% 29.92 in - Variable 2.3 mph - N/A   Overcast
4:50 AM 41.0 °F - 39.2 °F 93% 29.92 in - Calm Calm - N/A   Overcast
5:00 AM 41 °F - 39 °F 91% 29.97 in - WNW 2.3 mph - -  
5:20 AM 41.0 °F - 39.2 °F 93% 29.92 in - Calm Calm - N/A   Overcast
5:50 AM 41.0 °F - 39.2 °F 93% 29.92 in - Variable 1.2 mph - N/A   Overcast
6:00 AM 41 °F - 39 °F 91% 29.97 in - NW 3.5 mph - -  
6:20 AM 41.0 °F - 39.2 °F 93% 29.92 in 1.9 mi WNW 2.3 mph - N/A   Overcast
6:50 AM 41.0 °F - 39.2 °F 93% 29.92 in 1.6 mi NW 2.3 mph - N/A   Overcast
7:00 AM 41 °F - 39 °F 90% 29.98 in 2 mi West 1.2 mph - -   Mist
7:20 AM 41.0 °F - 39.2 °F 93% 29.95 in 1.6 mi Calm Calm - N/A Fog Fog
7:50 AM 41.0 °F - 39.2 °F 93% 29.95 in 1.7 mi SSE 1.2 mph - N/A Fog Fog
8:00 AM 40 °F - 38 °F 91% 29.99 in - ENE 2.3 mph - -  
8:20 AM 41.0 °F - 39.2 °F 93% 29.95 in 1.9 mi East 2.3 mph - N/A Fog Fog
8:50 AM 41.0 °F - 39.2 °F 93% 29.95 in 1.7 mi NE 1.2 mph - N/A   Overcast
9:00 AM 41 °F - 38 °F 85% 30.00 in - ENE 1.2 mph - -  
9:20 AM 41.0 °F - 39.2 °F 93% 29.95 in 3.7 mi North 2.3 mph - N/A   Overcast
9:50 AM 41.0 °F - 39.2 °F 93% 29.95 in 3.7 mi SW 2.3 mph - N/A   Overcast
10:20 AM 41.0 °F - 39.2 °F 93% 29.98 in 3.7 mi ESE 1.2 mph - N/A   Mostly Cloudy
10:50 AM 41.0 °F - 39.2 °F 93% 29.98 in 4.3 mi East 2.3 mph - N/A   Mostly Cloudy
11:00 AM 42 °F - 38 °F 79% 30.01 in - East 1.2 mph - -  
11:20 AM 42.8 °F - 37.4 °F 81% 29.98 in 5.6 mi East 1.2 mph - N/A   Mostly Cloudy
11:50 AM 42.8 °F - 39.2 °F 87% 29.95 in 5.6 mi Calm Calm - N/A   Mostly Cloudy
12:00 PM 42 °F - 38 °F 79% 30.00 in - Calm Calm - -  
12:20 PM 42.8 °F - 39.2 °F 87% 29.95 in 5.6 mi South 2.3 mph - N/A   Scattered Clouds
12:50 PM 42.8 °F 41.1 °F 39.2 °F 87% 29.95 in 5.0 mi NE 3.5 mph - N/A   Mostly Cloudy
1:00 PM 43 °F - 39 °F 79% 29.98 in 5 mi ENE 2.3 mph - -   Mist
1:20 PM 42.8 °F - 39.2 °F 87% 29.95 in 5.6 mi ENE 2.3 mph - N/A   Mostly Cloudy
1:50 PM 44.6 °F - 39.2 °F 81% 29.95 in 5.6 mi NE 2.3 mph - N/A   Mostly Cloudy
2:00 PM 43 °F - 38 °F 77% 29.97 in - NE 2.3 mph - -  
2:20 PM 44.6 °F - 39.2 °F 81% 29.92 in 6.2 mi NNE 1.2 mph - N/A   Mostly Cloudy
2:50 PM 44.6 °F 43.1 °F 39.2 °F 81% 29.92 in 6.2 mi ESE 3.5 mph - N/A   Scattered Clouds
3:00 PM 44 °F - 38 °F 73% 29.97 in - NE 3.5 mph - -  
3:20 PM 44.6 °F 43.1 °F 39.2 °F 81% 29.92 in 5.6 mi ENE 3.5 mph - N/A   Mostly Cloudy
3:50 PM 42.8 °F - 39.2 °F 87% 29.92 in 5.6 mi Variable 2.3 mph - N/A   Mostly Cloudy
4:20 PM 42.8 °F 40.1 °F 39.2 °F 87% 29.95 in 5.6 mi NNE 4.6 mph - N/A   Mostly Cloudy
4:50 PM 42.8 °F - 39.2 °F 87% 29.95 in 5.0 mi Variable 1.2 mph - N/A   Mostly Cloudy
5:00 PM 42 °F - 39 °F 86% 29.98 in - North 3.5 mph - -  
5:20 PM 42.8 °F - 39.2 °F 87% 29.95 in 5.0 mi Variable 2.3 mph - N/A   Mostly Cloudy
5:50 PM 42.8 °F - 39.2 °F 87% 29.95 in 5.0 mi Variable 1.2 mph - N/A   Overcast
6:00 PM 41 °F - 38 °F 85% 30.00 in - NNW 2.3 mph - -  
6:20 PM 41.0 °F - 39.2 °F 93% 29.95 in 5.0 mi Variable 2.3 mph - N/A   Overcast
6:50 PM 42.8 °F - 39.2 °F 87% 29.98 in 5.0 mi Variable 2.3 mph - N/A   Overcast
7:00 PM 42 °F - 38 °F 81% 30.01 in 5 mi NW 3.5 mph - -   Mist
7:20 PM 42.8 °F - 39.2 °F 87% 29.98 in 5.0 mi Variable 2.3 mph - N/A   Overcast
7:50 PM 41.0 °F - 39.2 °F 93% 29.98 in 5.0 mi WNW 2.3 mph - N/A   Mostly Cloudy
8:00 PM 42 °F - 38 °F 82% 30.03 in - NNW 2.3 mph - -  
8:20 PM 41.0 °F - 39.2 °F 93% 29.98 in 4.3 mi Variable 1.2 mph - N/A   Mostly Cloudy
8:50 PM 42.8 °F - 39.2 °F 87% 29.98 in 4.3 mi Variable 2.3 mph - N/A   Mostly Cloudy
9:00 PM 42 °F - 38 °F 81% 30.04 in - NW 3.5 mph - -  
9:20 PM 41.0 °F 39.0 °F 39.2 °F 93% 30.01 in 3.7 mi NW 3.5 mph - N/A   Overcast
9:50 PM 41.0 °F - 39.2 °F 93% 30.01 in - Variable 2.3 mph - N/A   Overcast
10:20 PM 41.0 °F - 39.2 °F 93% 30.01 in 2.8 mi Variable 2.3 mph - N/A   Overcast
10:50 PM 41.0 °F - 39.2 °F 93% 30.01 in 2.5 mi Variable 2.3 mph - N/A   Overcast
11:00 PM 41 °F - 38 °F 87% 30.04 in - NW 3.5 mph - -  
11:20 PM 41.0 °F - 39.2 °F 93% 30.01 in - Variable 2.3 mph - N/A   Overcast
11:50 PM 41.0 °F - 39.2 °F 93% 29.98 in - Variable 2.3 mph - N/A   Overcast